Current Weather Conditions
Home Hang gliding Paragliding Powered Parachute Powered Paragliding Skydiving Ultralight Weather Aviation Shirts
WEATHER DATA:
Weather observations for the past three days for
Janesville-Rock County
Imperial (Metric)
Date Time (cdt) Wind (mph) Vis. (mi.) Weather Sky Cond. Temperature (F) Relative Humidity Wind Chill (F) Heat Index (F) Pressure Precipitation (in)
Air Dwpt 6 hour altimeter (in) sea level (mb) 1 hr 3 hr 6 hr
Max. Min.
24 21:50 Calm 10.00 Fair CLR 69.8 60.8 73% 30.19 0.0
24 21:30 Calm 10.00 Fair CLR 69.8 60.8 73% 30.19 0.0
24 21:10 Calm 10.00 Fair CLR 69.8 60.8 73% 30.19 0.0
24 20:45 N 3 10.00 Fair CLR 69.8 62.6 78% 30.17 0.0
24 19:45 N 3 10.00 Fair CLR 73.4 62.6 69% 30.16 0.0
24 18:45 N 5 10.00 Partly Cloudy SCT040 73.4 62.6 69% 30.16 0.0
24 17:45 N 8 10.00 Mostly Cloudy BKN042 75.2 62.6 65% 77 30.15 0.0
24 16:45 N 9 10.00 Mostly Cloudy SCT031 BKN044 77 64.4 65% 79 30.16 0.0
24 15:45 N 8 10.00 Mostly Cloudy BKN035 BKN044 75.2 64.4 69% 77 30.15 0.0
24 14:45 N 9 10.00 Mostly Cloudy BKN033 BKN041 75.2 64.4 69% 77 30.15 0.0
24 13:45 NE 9 10.00 Mostly Cloudy BKN029 75.2 64.4 69% 77 30.15 0.0
24 12:45 NE 7 10.00 Overcast BKN023 BKN039 OVC050 75.2 66.2 74% 77 30.16 0.0
24 11:45 NE 8 10.00 Overcast SCT017 BKN024 OVC029 71.6 66.2 83% 30.17 0.0
24 10:45 NE 8 10.00 Overcast BKN021 OVC031 71.6 66.2 83% 30.16 0.0
24 09:45 E 6 10.00 Overcast BKN016 OVC030 71.6 66.2 83% 30.16 0.0
24 08:45 NE 7 10.00 Overcast OVC025 69.8 66.2 88% 30.15 0.0
24 07:45 NE 7 10.00 Overcast BKN025 OVC032 69.8 66.2 88% 30.14 0.0
24 06:45 NE 7 10.00 Overcast BKN029 OVC034 68 68 100% 30.12 0.0
24 05:45 Calm 10.00 Overcast SCT016 OVC025 68 68 100% 30.12 0.0
24 05:10 Calm 10.00 Overcast OVC018 68 68 100% 30.11 0.0
24 04:50 Calm 10.00 Overcast OVC021 68 68 100% 30.1 0.0
24 04:30 Calm 10.00 Overcast BKN021 OVC042 68 68 100% 30.09 0.0
24 04:10 Calm 10.00 Overcast BKN021 OVC042 68 68 100% 30.09 0.0
24 03:50 NE 3 10.00 Overcast OVC021 68 68 100% 30.09 0.0
24 03:30 NE 3 10.00 Overcast SCT019 BKN024 OVC044 68 68 100% 30.08 0.0
24 03:15 NE 3 10.00 Overcast OVC041 68 68 100% 30.08 0.0
24 02:50 Calm 10.00 Mostly Cloudy SCT019 SCT029 BKN046 68 68 100% 30.07 0.0
24 02:35 NE 3 10.00 Partly Cloudy SCT019 SCT029 SCT048 68 68 100% 30.07 0.0
24 02:10 NE 5 10.00 Mostly Cloudy BKN048 68 68 100% 30.06 0.0
24 01:50 N 3 10.00 Mostly Cloudy SCT028 BKN048 68 68 100% 30.06 0.0
24 01:30 N 3 10.00 Mostly Cloudy SCT019 BKN026 BKN035 68 68 100% 30.06 0.0
24 01:10 N 5 10.00 Mostly Cloudy SCT026 BKN032 BKN038 69.8 69.8 100% 30.06 0.0
24 00:50 Calm 5.00 Fog/Mist SCT028 BKN032 69.8 69.8 100% 30.06 0.0
24 00:30 Calm 7.00 Fair CLR 69.8 69.8 100% 30.06 0.0
24 00:10 Calm 7.00 Drizzle SCT039 SCT060 BKN110 69.8 69.8 100% 30.05 0.0
23 23:50 Calm 7.00 Mostly Cloudy SCT060 SCT090 BKN110 69.8 69.8 100% 30.05 0.0
23 23:30 NE 5 5.00 Light Rain SCT005 SCT015 BKN031 69.8 69.8 100% 30.05 0.0
23 23:10 Calm 10.00 Mostly Cloudy SCT015 BKN032 BKN041 69.8 68 94% 30.05 0.0
23 22:50 Calm 10.00 Mostly Cloudy SCT034 SCT041 BKN110 69.8 68 94% 30.04 0.0
23 22:30 Calm 10.00 Mostly Cloudy SCT047 SCT090 BKN110 69.8 68 94% 30.04 0.0
23 22:10 Calm 10.00 Mostly Cloudy SCT031 SCT039 BKN047 69.8 68 94% 30.04 0.0
23 21:50 Calm 10.00 Overcast SCT031 OVC039 71.6 68 88% 30.05 0.0
23 21:30 Calm 10.00 Mostly Cloudy BKN037 BKN090 71.6 68 88% 30.04 0.0
23 21:10 Calm 5.00 Fog/Mist SCT120 71.6 68 88% 30.03 0.0
23 20:45 Vrbl 5 6.00 Fog/Mist OVC120 73.4 69.8 89% 30.02 0.0
23 19:45 Vrbl 5 6.00 Fog/Mist OVC250 75.2 69.8 83% 75 30 0.0
23 18:45 Vrbl 5 6.00 Fog/Mist SCT090 OVC250 77 69.8 79% 79 30.01 0.0
23 17:45 NW 10 7.00 Overcast SCT090 OVC250 78.8 69.8 74% 81 30 0.0
23 16:45 NW 13 7.00 Mostly Cloudy SCT037 BKN200 80.6 69.8 70% 84 29.98 0.0
23 15:45 NW 15 6.00 Fog/Mist SCT055CB BKN200 82.4 69.8 66% 86 29.96 0.0
23 14:45 W 13 G 18 6.00 Fog/Mist BKN055CB BKN200 82.4 69.8 66% 86 29.97 0.0
23 13:45 NW 8 6.00 Light Showers Rain BKN026 BKN035 OVC041 78.8 75.2 89% 82 29.99 0.0
23 12:45 NW 7 10.00 Overcast BKN026 OVC110 78.8 71.6 79% 82 30 0.0
23 11:45 NE 8 7.00 Light Rain Thunderstorm in Vicinity SCT045 BKN070 71.6 69.8 94% 30.02 0.0
23 10:45 NE 9 7.00 Mostly Cloudy BKN050 BKN070 71.6 69.8 94% 30.02 0.0
23 09:45 Calm 7.00 Mostly Cloudy BKN120 73.4 71.6 94% 30.01 0.0
23 08:45 Calm 6.00 Mostly Cloudy with Haze BKN150 68 68 100% 30.01 0.0
23 07:45 SW 9 6.00 Mostly Cloudy with Haze BKN150 68 68 100% 30 0.0
23 06:45 Calm 10.00 A Few Clouds FEW100 66.2 66.2 100% 30 0.0
23 05:45 Calm 10.00 A Few Clouds FEW100 64.4 64.4 100% 30 0.0
23 05:10 Calm 7.00 Partly Cloudy SCT038 62.6 62.6 100% 30 0.0
23 04:50 Calm 7.00 Partly Cloudy SCT038 62.6 62.6 100% 29.99 0.0
23 04:30 Calm 10.00 Fair CLR 64.4 64.4 100% 29.99 0.0
23 04:10 Calm 7.00 Fair CLR 62.6 62.6 100% 29.99 0.0
23 03:50 S 3 7.00 Fair CLR 64.4 64.4 100% 29.99 0.0
23 03:30 S 5 10.00 Fair CLR 64.4 64.4 100% 29.98 0.0
23 03:10 S 5 10.00 Fair CLR 64.4 64.4 100% 29.99 0.0
23 02:50 S 5 10.00 Fair CLR 64.4 64.4 100% 30 0.0
23 02:30 S 3 10.00 Fair CLR 64.4 64.4 100% 30 0.0
23 02:10 Calm 10.00 Fair CLR 64.4 64.4 100% 30 0.0
23 01:50 Calm 10.00 Fair CLR 64.4 64.4 100% 30 0.0
23 01:30 Calm 10.00 Fair CLR 64.4 64.4 100% 30 0.0
23 01:10 Calm 10.00 Fair CLR 66.2 66.2 100% 30 0.0
23 00:50 Calm 10.00 Fair CLR 64.4 64.4 100% 30 0.0
23 00:35 Calm 10.00 Fair CLR 64.4 64.4 100% 30 0.0
23 00:15 Calm 10.00 Fair CLR 64.4 64.4 100% 30 0.0
22 23:55 Calm 10.00 Fair CLR 66.2 66.2 100% 30 0.0
22 23:35 S 3 10.00 Fair CLR 68 68 100% 30.01 0.0
22 23:15 Calm 10.00 Fair CLR 68 66.2 94% 30.01 0.0
22 22:55 Calm 10.00 Fair CLR 68 68 100% 30 0.0
22 22:35 Calm 10.00 Fair CLR 68 68 100% 30 0.0
22 22:15 Calm 10.00 Fair CLR 69.8 66.2 88% 30 0.0
22 21:55 Calm 10.00 Fair CLR 69.8 68 94% 30 0.0
22 21:35 Calm 10.00 Fair CLR 68 68 100% 30 0.0
22 21:15 Calm 10.00 Fair CLR 69.8 68 94% 30 0.0
22 20:45 Vrbl 5 10.00 Mostly Cloudy BKN200 71.6 68 88% 29.99 0.0
22 18:45 SW 6 10.00 Mostly Cloudy FEW048 BKN200 78.8 68 70% 81 29.98 0.0
22 17:45 SW 9 10.00 Mostly Cloudy FEW048 BKN200 78.8 68 70% 81 29.98 0.0
22 16:45 Calm 10.00 Mostly Cloudy SCT048 BKN200 80.6 64.4 58% 82 29.99 0.0
22 15:45 E 6 10.00 Mostly Cloudy SCT039 BKN050 80.6 64.4 58% 82 30.01 0.0
22 14:45 E 6 10.00 Mostly Cloudy SCT040 BKN050 80.6 64.4 58% 82 30.02 0.0
22 13:45 E 6 10.00 Partly Cloudy SCT038 80.6 64.4 58% 82 30.04 0.0
22 12:45 E 7 10.00 Partly Cloudy SCT038 80.6 64.4 58% 82 30.05 0.0
22 11:45 E 7 10.00 Fair CLR 68 64.4 88% 30.06 0.0
22 10:45 Vrbl 5 10.00 Partly Cloudy SCT250 78.8 60.8 54% 80 30.07 0.0
22 09:45 Vrbl 5 10.00 Partly Cloudy SCT250 75.2 60.8 61% 77 30.06 0.0
22 08:45 Vrbl 3 10.00 Partly Cloudy SCT070 SCT200 73.4 62.6 69% 30.07 0.0
22 07:45 NW 3 10.00 Mostly Cloudy SCT031 BKN150 69.8 68 94% 30.07 0.0
22 06:45 NW 3 10.00 Mostly Cloudy BKN150 64.4 64.4 100% 30.07 0.0
22 05:45 Calm 10.00 Mostly Cloudy BKN150 64.4 64.4 100% 30.05 0.0
22 05:10 Calm 10.00 Fair CLR 62.6 62.6 100% 30.07 0.0
22 04:50 Calm 10.00 Fair CLR 62.6 62.6 100% 30.07 0.0
22 04:10 Calm 10.00 Fair CLR 62.6 62.6 100% 30.06 0.0
22 03:50 Calm 10.00 Fair CLR 64.4 62.6 94% 30.06 0.0
22 03:30 Calm 10.00 Fair CLR 62.6 62.6 100% 30.07 0.0
22 03:10 Calm 10.00 Fair CLR 64.4 62.6 94% 30.07 0.0
22 02:50 Calm 10.00 Fair CLR 64.4 62.6 94% 30.07 0.0
22 02:30 Calm 10.00 Fair CLR 62.6 62.6 100% 30.07 0.0
22 01:50 Calm 10.00 Fair CLR 64.4 62.6 94% 30.08 0.0
22 01:30 Calm 10.00 Fair CLR 64.4 62.6 94% 30.09 0.0
22 01:10 NE 3 10.00 Fair CLR 66.2 64.4 94% 30.09 0.0
22 00:50 Calm 10.00 Fair CLR 66.2 64.4 94% 30.09 0.0
22 00:35 Calm 10.00 Fair CLR 66.2 64.4 94% 30.1 0.0
22 00:15 Calm 10.00 Fair CLR 66.2 64.4 94% 30.1 0.0
21 23:55 Calm 10.00 Fair CLR 68 64.4 88% 30.1 0.0
21 23:35 E 3 10.00 Fair CLR 68 64.4 88% 30.1 0.0
21 23:15 Calm 10.00 Fair CLR 68 64.4 88% 30.1 0.0
21 22:55 Calm 10.00 Fair CLR 68 66.2 94% 30.1 0.0
21 22:35 E 5 10.00 Fair CLR 68 68 100% 30.1 0.0
Date Time (cdt) Wind (mph) Vis. (mi.) Weather Sky Cond. Air Dwpt Max. Min. Relative Humidity Wind Chill (F) Heat Index (F) altimeter (in) sea level (mb) 1 hr 3 hr 6 hr
6 hour
Temperature (F) Pressure Precipitation (in)
3 day Weather History for - KJVL
Weather observations for the past three days for
Janesville-Rock County
Imperial (Metric)
Date Time (cdt) Wind (mph) Vis. (mi.) Weather Sky Cond. Temperature (F) Relative Humidity Wind Chill (F) Heat Index (F) Pressure Precipitation (in)
Air Dwpt 6 hour altimeter (in) sea level (mb) 1 hr 3 hr 6 hr
Max. Min.
24 21:50 Calm 10.00 Fair CLR 69.8 60.8 73% 30.19 0.0
24 21:30 Calm 10.00 Fair CLR 69.8 60.8 73% 30.19 0.0
24 21:10 Calm 10.00 Fair CLR 69.8 60.8 73% 30.19 0.0
24 20:45 N 3 10.00 Fair CLR 69.8 62.6 78% 30.17 0.0
24 19:45 N 3 10.00 Fair CLR 73.4 62.6 69% 30.16 0.0
24 18:45 N 5 10.00 Partly Cloudy SCT040 73.4 62.6 69% 30.16 0.0
24 17:45 N 8 10.00 Mostly Cloudy BKN042 75.2 62.6 65% 77 30.15 0.0
24 16:45 N 9 10.00 Mostly Cloudy SCT031 BKN044 77 64.4 65% 79 30.16 0.0
24 15:45 N 8 10.00 Mostly Cloudy BKN035 BKN044 75.2 64.4 69% 77 30.15 0.0
24 14:45 N 9 10.00 Mostly Cloudy BKN033 BKN041 75.2 64.4 69% 77 30.15 0.0
24 13:45 NE 9 10.00 Mostly Cloudy BKN029 75.2 64.4 69% 77 30.15 0.0
24 12:45 NE 7 10.00 Overcast BKN023 BKN039 OVC050 75.2 66.2 74% 77 30.16 0.0
24 11:45 NE 8 10.00 Overcast SCT017 BKN024 OVC029 71.6 66.2 83% 30.17 0.0
24 10:45 NE 8 10.00 Overcast BKN021 OVC031 71.6 66.2 83% 30.16 0.0
24 09:45 E 6 10.00 Overcast BKN016 OVC030 71.6 66.2 83% 30.16 0.0
24 08:45 NE 7 10.00 Overcast OVC025 69.8 66.2 88% 30.15 0.0
24 07:45 NE 7 10.00 Overcast BKN025 OVC032 69.8 66.2 88% 30.14 0.0
24 06:45 NE 7 10.00 Overcast BKN029 OVC034 68 68 100% 30.12 0.0
24 05:45 Calm 10.00 Overcast SCT016 OVC025 68 68 100% 30.12 0.0
24 05:10 Calm 10.00 Overcast OVC018 68 68 100% 30.11 0.0
24 04:50 Calm 10.00 Overcast OVC021 68 68 100% 30.1 0.0
24 04:30 Calm 10.00 Overcast BKN021 OVC042 68 68 100% 30.09 0.0
24 04:10 Calm 10.00 Overcast BKN021 OVC042 68 68 100% 30.09 0.0
24 03:50 NE 3 10.00 Overcast OVC021 68 68 100% 30.09 0.0
24 03:30 NE 3 10.00 Overcast SCT019 BKN024 OVC044 68 68 100% 30.08 0.0
24 03:15 NE 3 10.00 Overcast OVC041 68 68 100% 30.08 0.0
24 02:50 Calm 10.00 Mostly Cloudy SCT019 SCT029 BKN046 68 68 100% 30.07 0.0
24 02:35 NE 3 10.00 Partly Cloudy SCT019 SCT029 SCT048 68 68 100% 30.07 0.0
24 02:10 NE 5 10.00 Mostly Cloudy BKN048 68 68 100% 30.06 0.0
24 01:50 N 3 10.00 Mostly Cloudy SCT028 BKN048 68 68 100% 30.06 0.0
24 01:30 N 3 10.00 Mostly Cloudy SCT019 BKN026 BKN035 68 68 100% 30.06 0.0
24 01:10 N 5 10.00 Mostly Cloudy SCT026 BKN032 BKN038 69.8 69.8 100% 30.06 0.0
24 00:50 Calm 5.00 Fog/Mist SCT028 BKN032 69.8 69.8 100% 30.06 0.0
24 00:30 Calm 7.00 Fair CLR 69.8 69.8 100% 30.06 0.0
24 00:10 Calm 7.00 Drizzle SCT039 SCT060 BKN110 69.8 69.8 100% 30.05 0.0
23 23:50 Calm 7.00 Mostly Cloudy SCT060 SCT090 BKN110 69.8 69.8 100% 30.05 0.0
23 23:30 NE 5 5.00 Light Rain SCT005 SCT015 BKN031 69.8 69.8 100% 30.05 0.0
23 23:10 Calm 10.00 Mostly Cloudy SCT015 BKN032 BKN041 69.8 68 94% 30.05 0.0
23 22:50 Calm 10.00 Mostly Cloudy SCT034 SCT041 BKN110 69.8 68 94% 30.04 0.0
23 22:30 Calm 10.00 Mostly Cloudy SCT047 SCT090 BKN110 69.8 68 94% 30.04 0.0
23 22:10 Calm 10.00 Mostly Cloudy SCT031 SCT039 BKN047 69.8 68 94% 30.04 0.0
23 21:50 Calm 10.00 Overcast SCT031 OVC039 71.6 68 88% 30.05 0.0
23 21:30 Calm 10.00 Mostly Cloudy BKN037 BKN090 71.6 68 88% 30.04 0.0
23 21:10 Calm 5.00 Fog/Mist SCT120 71.6 68 88% 30.03 0.0
23 20:45 Vrbl 5 6.00 Fog/Mist OVC120 73.4 69.8 89% 30.02 0.0
23 19:45 Vrbl 5 6.00 Fog/Mist OVC250 75.2 69.8 83% 75 30 0.0
23 18:45 Vrbl 5 6.00 Fog/Mist SCT090 OVC250 77 69.8 79% 79 30.01 0.0
23 17:45 NW 10 7.00 Overcast SCT090 OVC250 78.8 69.8 74% 81 30 0.0
23 16:45 NW 13 7.00 Mostly Cloudy SCT037 BKN200 80.6 69.8 70% 84 29.98 0.0
23 15:45 NW 15 6.00 Fog/Mist SCT055CB BKN200 82.4 69.8 66% 86 29.96 0.0
23 14:45 W 13 G 18 6.00 Fog/Mist BKN055CB BKN200 82.4 69.8 66% 86 29.97 0.0
23 13:45 NW 8 6.00 Light Showers Rain BKN026 BKN035 OVC041 78.8 75.2 89% 82 29.99 0.0
23 12:45 NW 7 10.00 Overcast BKN026 OVC110 78.8 71.6 79% 82 30 0.0
23 11:45 NE 8 7.00 Light Rain Thunderstorm in Vicinity SCT045 BKN070 71.6 69.8 94% 30.02 0.0
23 10:45 NE 9 7.00 Mostly Cloudy BKN050 BKN070 71.6 69.8 94% 30.02 0.0
23 09:45 Calm 7.00 Mostly Cloudy BKN120 73.4 71.6 94% 30.01 0.0
23 08:45 Calm 6.00 Mostly Cloudy with Haze BKN150 68 68 100% 30.01 0.0
23 07:45 SW 9 6.00 Mostly Cloudy with Haze BKN150 68 68 100% 30 0.0
23 06:45 Calm 10.00 A Few Clouds FEW100 66.2 66.2 100% 30 0.0
23 05:45 Calm 10.00 A Few Clouds FEW100 64.4 64.4 100% 30 0.0
23 05:10 Calm 7.00 Partly Cloudy SCT038 62.6 62.6 100% 30 0.0
23 04:50 Calm 7.00 Partly Cloudy SCT038 62.6 62.6 100% 29.99 0.0
23 04:30 Calm 10.00 Fair CLR 64.4 64.4 100% 29.99 0.0
23 04:10 Calm 7.00 Fair CLR 62.6 62.6 100% 29.99 0.0
23 03:50 S 3 7.00 Fair CLR 64.4 64.4 100% 29.99 0.0
23 03:30 S 5 10.00 Fair CLR 64.4 64.4 100% 29.98 0.0
23 03:10 S 5 10.00 Fair CLR 64.4 64.4 100% 29.99 0.0
23 02:50 S 5 10.00 Fair CLR 64.4 64.4 100% 30 0.0
23 02:30 S 3 10.00 Fair CLR 64.4 64.4 100% 30 0.0
23 02:10 Calm 10.00 Fair CLR 64.4 64.4 100% 30 0.0
23 01:50 Calm 10.00 Fair CLR 64.4 64.4 100% 30 0.0
23 01:30 Calm 10.00 Fair CLR 64.4 64.4 100% 30 0.0
23 01:10 Calm 10.00 Fair CLR 66.2 66.2 100% 30 0.0
23 00:50 Calm 10.00 Fair CLR 64.4 64.4 100% 30 0.0
23 00:35 Calm 10.00 Fair CLR 64.4 64.4 100% 30 0.0
23 00:15 Calm 10.00 Fair CLR 64.4 64.4 100% 30 0.0
22 23:55 Calm 10.00 Fair CLR 66.2 66.2 100% 30 0.0
22 23:35 S 3 10.00 Fair CLR 68 68 100% 30.01 0.0
22 23:15 Calm 10.00 Fair CLR 68 66.2 94% 30.01 0.0
22 22:55 Calm 10.00 Fair CLR 68 68 100% 30 0.0
22 22:35 Calm 10.00 Fair CLR 68 68 100% 30 0.0
22 22:15 Calm 10.00 Fair CLR 69.8 66.2 88% 30 0.0
22 21:55 Calm 10.00 Fair CLR 69.8 68 94% 30 0.0
22 21:35 Calm 10.00 Fair CLR 68 68 100% 30 0.0
22 21:15 Calm 10.00 Fair CLR 69.8 68 94% 30 0.0
22 20:45 Vrbl 5 10.00 Mostly Cloudy BKN200 71.6 68 88% 29.99 0.0
22 18:45 SW 6 10.00 Mostly Cloudy FEW048 BKN200 78.8 68 70% 81 29.98 0.0
22 17:45 SW 9 10.00 Mostly Cloudy FEW048 BKN200 78.8 68 70% 81 29.98 0.0
22 16:45 Calm 10.00 Mostly Cloudy SCT048 BKN200 80.6 64.4 58% 82 29.99 0.0
22 15:45 E 6 10.00 Mostly Cloudy SCT039 BKN050 80.6 64.4 58% 82 30.01 0.0
22 14:45 E 6 10.00 Mostly Cloudy SCT040 BKN050 80.6 64.4 58% 82 30.02 0.0
22 13:45 E 6 10.00 Partly Cloudy SCT038 80.6 64.4 58% 82 30.04 0.0
22 12:45 E 7 10.00 Partly Cloudy SCT038 80.6 64.4 58% 82 30.05 0.0
22 11:45 E 7 10.00 Fair CLR 68 64.4 88% 30.06 0.0
22 10:45 Vrbl 5 10.00 Partly Cloudy SCT250 78.8 60.8 54% 80 30.07 0.0
22 09:45 Vrbl 5 10.00 Partly Cloudy SCT250 75.2 60.8 61% 77 30.06 0.0
22 08:45 Vrbl 3 10.00 Partly Cloudy SCT070 SCT200 73.4 62.6 69% 30.07 0.0
22 07:45 NW 3 10.00 Mostly Cloudy SCT031 BKN150 69.8 68 94% 30.07 0.0
22 06:45 NW 3 10.00 Mostly Cloudy BKN150 64.4 64.4 100% 30.07 0.0
22 05:45 Calm 10.00 Mostly Cloudy BKN150 64.4 64.4 100% 30.05 0.0
22 05:10 Calm 10.00 Fair CLR 62.6 62.6 100% 30.07 0.0
22 04:50 Calm 10.00 Fair CLR 62.6 62.6 100% 30.07 0.0
22 04:10 Calm 10.00 Fair CLR 62.6 62.6 100% 30.06 0.0
22 03:50 Calm 10.00 Fair CLR 64.4 62.6 94% 30.06 0.0
22 03:30 Calm 10.00 Fair CLR 62.6 62.6 100% 30.07 0.0
22 03:10 Calm 10.00 Fair CLR 64.4 62.6 94% 30.07 0.0
22 02:50 Calm 10.00 Fair CLR 64.4 62.6 94% 30.07 0.0
22 02:30 Calm 10.00 Fair CLR 62.6 62.6 100% 30.07 0.0
22 01:50 Calm 10.00 Fair CLR 64.4 62.6 94% 30.08 0.0
22 01:30 Calm 10.00 Fair CLR 64.4 62.6 94% 30.09 0.0
22 01:10 NE 3 10.00 Fair CLR 66.2 64.4 94% 30.09 0.0
22 00:50 Calm 10.00 Fair CLR 66.2 64.4 94% 30.09 0.0
22 00:35 Calm 10.00 Fair CLR 66.2 64.4 94% 30.1 0.0
22 00:15 Calm 10.00 Fair CLR 66.2 64.4 94% 30.1 0.0
21 23:55 Calm 10.00 Fair CLR 68 64.4 88% 30.1 0.0
21 23:35 E 3 10.00 Fair CLR 68 64.4 88% 30.1 0.0
21 23:15 Calm 10.00 Fair CLR 68 64.4 88% 30.1 0.0
21 22:55 Calm 10.00 Fair CLR 68 66.2 94% 30.1 0.0
21 22:35 E 5 10.00 Fair CLR 68 68 100% 30.1 0.0
Date Time (cdt) Wind (mph) Vis. (mi.) Weather Sky Cond. Air Dwpt Max. Min. Relative Humidity Wind Chill (F) Heat Index (F) altimeter (in) sea level (mb) 1 hr 3 hr 6 hr
6 hour
Temperature (F) Pressure Precipitation (in)


Weather History V4.0 ©2002- Airsports Net